Notices

What's New in latest Release from April 7th, 2021:

- Updated Glossary, including Speed of Maximum Gust, and Total Hourly Precipitation

- Updated national and regional climate services offices contacts and prices information

- Addition of station inventory lists for 1981-2010, 1971-2000, and 1961-1990 Normals.

If you haven't already, please take our survey and provide feedback about our website: https://eccc.sondage-survey.ca/f/LanguageSelection.aspx?s=442ca660-fcf1-47c0-95a9-59707d6fd709

Hourly Data Report for January 28, 2021

CARBERRY CS
MANITOBA
Current Station Operator: ECCC - MSC

49°54'20.900" N
99°21'26.800" W
383.50 m
5010547
71170
WZE

Download Data

Hourly Data (January 2021)
Hourly Data Report for January 28, 2021
TIME
LST
Temp Definition
°C
Dew Point Definition
°C
Rel Hum Definition
%
Precip. Amount Definition
mm

Wind Dir Definition
10's deg

Wind Spd Definition
km/h
Visibility Definition
km
Stn Press Definition
kPa
Hmdx Definition


Wind Chill Definition


Weather Definition


00:00 -24.7 -27.7 76 0.0 8 5   98.54   -30 LegendNANA
01:00 -23.2 -26.6 74 0.0 8 10   98.55   -31 LegendNANA
02:00 -22.6 -25.9 75 0.0 9 13   98.47   -32 LegendNANA
03:00 -21.5 -24.7 75 0.0 9 8   98.49   -28 LegendNANA
04:00 -20.5 -23.7 75 0.0 9 9   98.45   -27 LegendNANA
05:00 -19.9 -23.1 75 0.0 8 12   98.36   -28 LegendNANA
06:00 -18.9 -22.2 75 0.0 8 9   98.33   -25 LegendNANA
07:00 -19.3 -22.3 77 0.0 7 9   98.31   -26 LegendNANA
08:00 -17.9 -21.0 76 0.0 9 11   98.32   -25 LegendNANA
09:00 -17.6 -20.8 76 0.0 9 13   98.31   -25 LegendNANA
10:00 -17.3 -21.2 72 0.0 8 13   98.27   -25 LegendNANA
11:00 -16.2 -20.1 72 0.0 10 15   98.27   -24 LegendNANA
12:00 -15.6 -19.6 71 0.0 10 16   98.20   -24 LegendNANA
13:00 -14.4 -18.8 69 0.0 9 14   98.11   -22 LegendNANA
14:00 -12.8 -18.6 62 0.0 10 16   98.05   -20 LegendNANA
15:00 -12.0 -16.8 67 0.0 10 13   98.01   -19 LegendNANA
16:00 -11.9 -15.8 73 0.0 10 12   98.00   -18 LegendNANA
17:00 -13.4 -16.9 75 0.0 12 14   97.98   -21 LegendNANA
18:00 -13.7 -17.0 76 0.0 11 13   98.05   -21 LegendNANA
19:00 -14.0 -17.1 77 0.0 10 15   98.02   -22 LegendNANA
20:00 -14.1 -16.9 80 0.0 9 10   98.00   -20 LegendNANA
21:00 -13.8 -16.4 81 0.0 9 13   97.92   -21 LegendNANA
22:00 -12.8 -15.4 81 0.0 11 12   97.86   -19 LegendNANA
23:00 -12.2 -14.8 81 0.0 10 10   97.87   -18 LegendNANA

Notes on Data Quality.

Legend

  • E = Estimated
  • M = Missing
  • NA = Not Available*
  • [empty] = Indicates an unobserved value
Date modified: